sat.trackr.live / text

‹ back to catalog

STARLINK-36301

NORAD 67932 · 2026-037A

PAYLOAD ACTIVE UNKNOWN

§ Identity

Operator
Country
US
Launch date
2026-02-24
Launch site
AFETR
Launch vehicle
Mass (kg)
RCS (m²)

Purposes: comms

External: N2YO · Heavens-Above · Gunter

§ Orbital elements

Epoch: 2026-05-24T23:33:31.561056Z

Period
94.27 min
Inclination
43.0003°
Eccentricity
0.0001353
Mean motion
15.27580413 rev/d
Perigee alt
482.1 km
Apogee alt
484.0 km
Semi-major
6,861.2 km
B*
7.2777e-4
RAAN
120.2906°
Arg perigee
272.6869°
Mean anomaly
87.3827°
Rev number
1,500

§ Raw data

STARLINK-363011 67932U 26037A   26144.98161529  .00019819  00000+0  72777-3 0  99932 67932  43.0003 120.2906 0001353 272.6869  87.3827 15.27580413 15008

JSON: /api/v1/satellites/67932 · /tle

For live sub-satellite position, see the globe view (requires WebGL).

§ Visibility from observer

Set your observer location to see the next 7 days of passes ≥ 10°. The values pass through the URL so the page stays shareable.

No JS? Fill the form by hand. The geolocation button needs JavaScript.